Tracking 17140 objects as of 30-June-2015
HD Live streaming from Space Station

COSMOS 2375 (GLONASS)

Track COSMOS 2375 (GLONASS) now!
COSMOS 2375 (GLONASS) is classified as:


NORAD ID: 26564
Int'l Code: 2000-063A
Perigee: 19,120.7 km
Apogee: 19,153.3 km
Inclination: 64.9 °
Period: 675.7 minutes
Semi major axis: 25508 km
RCS: 3.9905 m2 (large)
Launch date: October 13, 2000
Source: Commonwealth of Independent States (former USSR) (CIS)
SV:

Russia's version of the GPS system, functions the same; there has been cooperation between the two; much scaled-back constellation
Your satellite tracking list
Your tracking list is empty





NASA's NSSDC Master Catalog

Two Line Element Set (TLE):
1 26564U 00063A   15178.55719698 -.00000034  00000-0  00000+0 0  9991
2 26564 064.8627 089.5176 0006393 057.4205 119.2760 02.13102030114428

Source of the keplerian elements: AFSPC

N2YO: 345